Simultaneous Nadir Overpasses (SNOs) Predictions

Prediction of SNOs between NOAA-21 and NOAA-19 Satellite Orbit:

Table of predicted SNOs for the next 14.0 days since TLE Epoch: 2/3/2024
Index Date (NOAA-21) Time (NOAA-21) Lat,Lon (NOAA-21) SZA (NOAA-21 ) Date (NOAA-19) Time (NOAA-19) Lat,Lon (NOAA-19) SZA (NOAA-19 ) Distance(km) Time Diff (sec)
1 02/15/2024 22:10:36 -73.47, 17.23 93.57 02/15/2024 22:09:25 -73.48, 15.94 93.44 40.96 71
2 02/15/2024 23:01:28 73.78,-176.18 86.78 02/15/2024 23:00:18 73.76,-176.13 86.77 3.20 70
3 02/15/2024 23:52:12 -73.78, -8.86 93.24 02/15/2024 23:51:17 -73.79, -8.79 93.22 2.88 55
4 02/16/2024 00:42:58 73.79, 158.42 86.76 02/16/2024 00:42:16 73.78, 158.43 86.76 1.72 42
5 02/16/2024 01:33:42 -73.79, -34.26 93.26 02/16/2024 01:33:15 -73.81, -34.23 93.23 2.88 27
6 02/16/2024 02:24:28 73.80, 133.02 86.75 02/16/2024 02:24:14 73.80, 132.99 86.75 1.23 14
7 02/16/2024 03:15:13 -73.85, -59.77 93.21 02/16/2024 03:15:13 -73.83, -59.67 93.24 3.53 0
8 02/16/2024 04:05:58 73.81, 107.62 86.74 02/16/2024 04:06:12 73.82, 107.54 86.74 2.42 14
9 02/16/2024 04:56:43 -73.86, -85.17 93.23 02/16/2024 04:57:11 -73.85, -85.12 93.25 1.83 28
10 02/16/2024 05:47:29 73.87, 82.10 86.78 02/16/2024 05:48:09 73.88, 82.22 86.77 3.96 40
11 02/16/2024 06:38:13 -73.87,-110.57 93.24 02/16/2024 06:39:09 -73.87,-110.56 93.26 0.28 56
12 02/16/2024 07:28:59 73.88, 56.70 86.77 02/16/2024 07:30:07 73.90, 56.78 86.77 3.35 68
13 02/16/2024 08:19:51 -74.27,-136.94 92.81 02/16/2024 08:21:01 -74.18,-135.25 93.03 52.18 70



Historial Predications of SNOs between NOAA-21 and NOAA-19
